This demonstration page uses our WeatherBlox Daily Observations layout. Learn more.

Left ArrowRight Arrow

Hourly Observations for November 25, 2016

Temp ( °F °C ) Dew Point ( °F °C ) Humidity (%) Winds ( mph kmh ) Pressure ( in mb ) Visibility ( mi km ) Precip ( " mm )
12:51 am 00:51 Clear 48 8.9 18 -7.8 30 30 SSE 12 19 30.16 1021 10 16.0934 N/A
1:51 am 01:51 Clear 47 8.3 17 -8.3 30 30 SE 13 20 30.16 1022 10 16.0934 N/A
2:51 am 02:51 Clear 47 8.3 16 -8.9 29 29 SE 8 13 30.18 1022 10 16.0934 N/A
3:51 am 03:51 Clear 45 7.2 16 -8.9 31 31 SE 12 19 30.18 1022 10 16.0934 N/A
4:51 am 04:51 Clear 47 8.3 15 -9.4 28 28 ESE 15 24 30.19 1022 10 16.0934 N/A
5:51 am 05:51 Clear 47 8.3 15 -9.4 28 28 ESE 15 24 30.22 1024 10 16.0934 N/A
6:51 am 06:51 Clear 47 8.3 15 -9.4 28 28 E 12 19 30.26 1025 10 16.0934 N/A
7:51 am 07:51 Sunny 50 10 15 -9.4 25 25 ESE 15 24 30.28 1025 10 16.0934 N/A
8:51 am 08:51 Sunny 51 10.6 16 -8.9 25 25 SE 13 20 30.31 1026 10 16.0934 N/A
9:51 am 09:51 Sunny 57 13.9 18 -7.8 22 22 SE 9 15 30.29 1026 10 16.0934 N/A
10:51 am 10:51 Sunny 61 16.1 18 -7.8 19 19 ESE 12 19 30.25 1025 10 16.0934 N/A
11:51 am 11:51 Sunny 64 17.8 20 -6.7 18 18 S 10 17 30.22 1024 10 16.0934 N/A
12:51 pm 12:51 Sunny 66 18.9 22 -5.6 19 19 SSE 10 17 30.18 1022 10 16.0934 N/A
1:51 pm 13:51 Sunny 68 20 22 -5.6 17 17 SE 9 15 30.15 1021 10 16.0934 N/A
2:51 pm 14:51 Sunny 67 19.4 23 -5 19 19 SSE 14 22 30.14 1021 10 16.0934 N/A
3:51 pm 15:51 Sunny 67 19.4 23 -5 19 19 SSE 13 20 30.14 1021 10 16.0934 N/A
4:51 pm 16:51 Sunny 63 17.2 24 -4.4 23 23 SSE 8 13 30.14 1021 10 16.0934 N/A
5:51 pm 17:51 Clear 59 15 24 -4.4 26 26 SE 8 13 30.16 1021 10 16.0934 N/A
6:51 pm 18:51 Clear 56 13.3 24 -4.4 29 29 E 9 15 30.18 1022 10 16.0934 N/A
7:51 pm 19:51 Clear 55 12.8 25 -3.9 31 31 ESE 6 9 30.19 1022 10 16.0934 N/A
8:51 pm 20:51 Clear 50 10 25 -3.9 38 38 SE 7 11 30.21 1023 10 16.0934 N/A
9:51 pm 21:51 Clear 49 9.4 26 -3.3 41 41 SE 7 11 30.21 1023 10 16.0934 N/A
10:51 pm 22:51 Clear 52 11.1 26 -3.3 37 37 ESE 12 19 30.19 1022 10 16.0934 N/A
11:51 pm 23:51 Clear 51 10.6 26 -3.3 38 38 SE 9 15 30.18 1022 10 16.0934 N/A

Powered by AerisWeather